Satellite: MET-2/21 Catalog number: 22782 Epoch time: 09106.71226702 Element set: 432 Inclination: 082.5483 deg RA of node: 230.7626 deg Eccentricity: 0.0023095 Arg of perigee: 155.8873 deg Mean anomaly: 204.3389 deg Mean motion: 13.83636002 rev/day Decay rate: 1.19e-06 rev/day^2 Epoch rev: 78910 Checksum: 297
Satellite: OKEAN-4 Catalog number: 23317 Epoch time: 09106.75454499 Element set: 882 Inclination: 082.5417 deg RA of node: 031.8123 deg Eccentricity: 0.0021119 Arg of perigee: 203.5692 deg Mean anomaly: 156.4582 deg Mean motion: 14.82688405 rev/day Decay rate: 1.25e-06 rev/day^2 Epoch rev: 78326 Checksum: 308
Satellite: NOAA-14 Catalog number: 23455 Epoch time: 09106.45695103 Element set: 583 Inclination: 098.9101 deg RA of node: 184.3460 deg Eccentricity: 0.0009402 Arg of perigee: 011.8607 deg Mean anomaly: 348.2777 deg Mean motion: 14.13761452 rev/day Decay rate: -4.5e-07 rev/day^2 Epoch rev: 73720 Checksum: 293
Satellite: NOAA-15 Catalog number: 25338 Epoch time: 09106.53394450 Element set: 892 Inclination: 098.5827 deg RA of node: 097.1037 deg Eccentricity: 0.0009755 Arg of perigee: 234.7314 deg Mean anomaly: 125.2950 deg Mean motion: 14.24752917 rev/day Decay rate: -1.43e-06 rev/day^2 Epoch rev: 56799 Checksum: 332
Satellite: RESURS Catalog number: 25394 Epoch time: 09106.96730262 Element set: 190 Inclination: 098.3488 deg RA of node: 142.4169 deg Eccentricity: 0.0002359 Arg of perigee: 046.1572 deg Mean anomaly: 313.9802 deg Mean motion: 14.24181627 rev/day Decay rate: -1.9e-07 rev/day^2 Epoch rev: 55968 Checksum: 311
Satellite: FENGYUN1 Catalog number: 25730 Epoch time: 09106.95336126 Element set: 733 Inclination: 098.7537 deg RA of node: 078.9565 deg Eccentricity: 0.0022984 Arg of perigee: 034.3220 deg Mean anomaly: 325.9429 deg Mean motion: 14.07965856 rev/day Decay rate: 2.56e-06 rev/day^2 Epoch rev: 51170 Checksum: 321
Satellite: OKEAN-0 Catalog number: 25860 Epoch time: 09105.49657556 Element set: 0652 Inclination: 097.7820 deg RA of node: 089.1852 deg Eccentricity: 0.0001693 Arg of perigee: 054.4397 deg Mean anomaly: 305.6967 deg Mean motion: 14.73567408 rev/day Decay rate: 3.0e-07 rev/day^2 Epoch rev: 52391 Checksum: 328
Satellite: NOAA-16 Catalog number: 26536 Epoch time: 09106.31210695 Element set: 367 Inclination: 099.1771 deg RA of node: 108.4839 deg Eccentricity: 0.0011453 Arg of perigee: 094.8233 deg Mean anomaly: 265.4240 deg Mean motion: 14.12514563 rev/day Decay rate: -1.88e-06 rev/day^2 Epoch rev: 44156 Checksum: 301
Satellite: NOAA-17 Catalog number: 27453 Epoch time: 09106.45137272 Element set: 375 Inclination: 098.4884 deg RA of node: 167.6318 deg Eccentricity: 0.0010814 Arg of perigee: 306.8209 deg Mean anomaly: 053.1980 deg Mean motion: 14.24055123 rev/day Decay rate: -6.5e-07 rev/day^2 Epoch rev: 35396 Checksum: 308
Satellite: NOAA-18 Catalog number: 28654 Epoch time: 09106.43657971 Element set: 865 Inclination: 098.9040 deg RA of node: 050.1682 deg Eccentricity: 0.0014267 Arg of perigee: 173.7548 deg Mean anomaly: 186.3796 deg Mean motion: 14.11248699 rev/day Decay rate: -1.27e-06 rev/day^2 Epoch rev: 20124 Checksum: 333
Satellite: NOAA-19 Catalog number: 33591 Epoch time: 09106.40335472 Element set: 70 Inclination: 098.7427 deg RA of node: 053.7872 deg Eccentricity: 0.0015020 Arg of perigee: 060.5277 deg Mean anomaly: 299.7389 deg Mean motion: 14.10951382 rev/day Decay rate: 4.26e-06 rev/day^2 Epoch rev: 972 Checksum: 307
/EX SB KEPS @ AMSAT $ORB09106.M Orbital Elements 09106.MISC
HR AMSAT ORBITAL ELEMENTS FOR MANNED AND MISCELLANEOUS SATELLITES FROM WA5QGD FORT WORTH,TX April 16, 2009 Send Subscribe/unsubscribe to KEPS at http://www.amsat.org/mailman/listinfo/keps BID: ORB09106.M TO ALL RADIO AMATEURS BT
Satellite: HUBBLE Catalog number: 20580 Epoch time: 09105.46330828 Element set: 0369 Inclination: 028.4690 deg RA of node: 151.5765 deg Eccentricity: 0.0003544 Arg of perigee: 000.6279 deg Mean anomaly: 359.4353 deg Mean motion: 15.00475449 rev/day Decay rate: 4.41e-06 rev/day^2 Epoch rev: 84042 Checksum: 288
Satellite: PO-34 Catalog number: 25520 Epoch time: 09106.95500854 Element set: 227 Inclination: 028.4598 deg RA of node: 304.8934 deg Eccentricity: 0.0004906 Arg of perigee: 355.6800 deg Mean anomaly: 004.3754 deg Mean motion: 15.17323279 rev/day Decay rate: 4.42e-06 rev/day^2 Epoch rev: 57934 Checksum: 308
Satellite: ISS Catalog number: 25544 Epoch time: 09106.49981230 Element set: 684 Inclination: 051.6407 deg RA of node: 263.1420 deg Eccentricity: 0.0008692 Arg of perigee: 245.9646 deg Mean anomaly: 235.8437 deg Mean motion: 15.72185824 rev/day Decay rate: 1.0049e-04 rev/day^2 Epoch rev: 59624 Checksum: 314
Satellite: CO-58 Catalog number: 28895 Epoch time: 09106.71630196 Element set: 278 Inclination: 098.0665 deg RA of node: 359.0309 deg Eccentricity: 0.0017924 Arg of perigee: 176.6637 deg Mean anomaly: 183.4712 deg Mean motion: 14.59758955 rev/day Decay rate: 1.65e-06 rev/day^2 Epoch rev: 18476 Checksum: 365
Satellite: FALCON Catalog number: 30776 Epoch time: 09105.46748978 Element set: 547 Inclination: 035.4324 deg RA of node: 119.9321 deg Eccentricity: 0.0000695 Arg of perigee: 061.0045 deg Mean anomaly: 299.0740 deg Mean motion: 15.03213903 rev/day Decay rate: 3.79e-06 rev/day^2 Epoch rev: 11565 Checksum: 294
Satellite: MAST Catalog number: 31126 Epoch time: 09105.66530548 Element set: 571 Inclination: 097.9936 deg RA of node: 163.3159 deg Eccentricity: 0.0095600 Arg of perigee: 113.6162 deg Mean anomaly: 247.5134 deg Mean motion: 14.53489655 rev/day Decay rate: 1.39e-06 rev/day^2 Epoch rev: 10595 Checksum: 307
Satellite: CAPE1 Catalog number: 31130 Epoch time: 09105.64226542 Element set: 0579 Inclination: 097.9967 deg RA of node: 161.6176 deg Eccentricity: 0.0104002 Arg of perigee: 118.8214 deg Mean anomaly: 242.3458 deg Mean motion: 14.52049720 rev/day Decay rate: 1.17e-06 rev/day^2 Epoch rev: 10561 Checksum: 276
Satellite: COMPASS Catalog number: 32787 Epoch time: 09104.34795463 Element set: 0333 Inclination: 097.9481 deg RA of node: 168.6963 deg Eccentricity: 0.0014840 Arg of perigee: 237.2859 deg Mean anomaly: 122.6926 deg Mean motion: 14.81578888 rev/day Decay rate: 5.16e-06 rev/day^2 Epoch rev: 05199 Checksum: 352
Satellite: AAUSAT2 Catalog number: 32788 Epoch time: 09106.88728749 Element set: 333 Inclination: 097.9489 deg RA of node: 171.2664 deg Eccentricity: 0.0014366 Arg of perigee: 229.2033 deg Mean anomaly: 130.7916 deg Mean motion: 14.81701313 rev/day Decay rate: 3.94e-06 rev/day^2 Epoch rev: 5237 Checksum: 320
Satellite: DO-64 Catalog number: 32789 Epoch time: 09105.75990070 Element set: 0348 Inclination: 097.9516 deg RA of node: 170.2702 deg Eccentricity: 0.0014727 Arg of perigee: 232.2165 deg Mean anomaly: 127.7713 deg Mean motion: 14.81666098 rev/day Decay rate: 6.13e-06 rev/day^2 Epoch rev: 05220 Checksum: 310
Satellite: CO-66 Catalog number: 32791 Epoch time: 09106.68006150 Element set: 324 Inclination: 097.9474 deg RA of node: 171.0402 deg Eccentricity: 0.0014975 Arg of perigee: 229.9292 deg Mean anomaly: 130.0620 deg Mean motion: 14.81414546 rev/day Decay rate: 2.98e-06 rev/day^2 Epoch rev: 5230 Checksum: 290
Satellite: RS-30 Catalog number: 32953 Epoch time: 09106.61513672 Element set: 281 Inclination: 082.4976 deg RA of node: 294.9087 deg Eccentricity: 0.0018533 Arg of perigee: 315.3842 deg Mean anomaly: 044.5744 deg Mean motion: 12.43000373 rev/day Decay rate: 1.0e-07 rev/day^2 Epoch rev: 4074 Checksum: 282
/EX